Vorticity
3 3 4 4 1 2 5 7 6 7 7 7 8 8 7 6 6 5 4 3 3 3 2 2 3 3 4 5 6 6 7 8 9 8 10 12 13 14 14 11 9 7 7 8 8 7 8 8 8 9 8 8 8 8 8 7 9 9 10 10 9 10 9 9 9 8 7 7 7 8 6 6 7 8 8 8 7 7 7 8 7 8 8 6 5 5 6 7
2 4 4 1 0 2 5 8 8 8 8 8 7 6 5 4 4 3 2 2 2 2 2 4 4 4 6 7 7 8 9 10 10 12 13 14 13 12 9 8 7 7 8 8 9 9 9 8 8 8 7 7 9 9 8 8 10 10 10 9 7 8 9 8 8 7 7 7 8 8 7 7 7 7 7 8 8 6 7 9 8 7 8 8 8 7 6 7
3 4 3 -1 0 4 8 10 8 9 9 7 6 4 3 3 2 2 2 2 3 3 4 5 5 6 7 8 9 10 11 12 13 15 13 11 10 8 7 6 7 8 9 8 8 7 7 7 8 8 7 9 10 10 9 9 8 7 7 7 7 7 9 9 8 8 8 8 8 8 6 6 7 6 6 7 8 5 4 8 11 12 11 11 12 12 11 10
4 1 -0 1 1 6 11 10 7 8 7 5 4 2 2 2 2 3 3 4 4 5 6 6 7 9 9 10 12 12 13 14 15 13 9 8 7 6 7 8 9 8 7 6 7 7 7 9 10 9 10 10 9 9 8 7 7 7 8 8 8 8 8 8 7 7 7 6 6 6 6 5 5 6 7 7 9 11 9 9 12 15 15 13 11 10 11 12
4 -0 1 4 4 8 11 6 5 7 5 3 2 2 2 3 3 3 4 5 6 7 8 9 9 10 12 13 13 13 14 13 12 9 7 7 7 7 8 9 8 7 6 7 9 10 10 10 10 8 8 6 5 6 6 8 9 9 9 7 6 5 5 6 6 5 6 7 8 9 10 9 9 10 11 11 12 15 15 11 8 8 10 11 10 8 8 8
5 3 2 3 5 7 7 4 5 5 3 2 2 2 2 3 3 5 6 8 9 9 10 11 12 13 13 13 13 14 12 8 7 7 7 7 8 8 7 7 7 8 9 10 10 9 9 8 7 5 5 6 7 8 8 10 9 6 6 4 4 4 6 8 9 9 10 11 12 13 12 11 11 10 10 11 10 10 10 8 5 4 5 6 7 7 7 6
7 7 6 11 13 8 6 4 4 3 3 3 2 2 2 3 5 7 9 10 11 11 12 13 13 13 13 13 13 11 7 6 7 8 8 8 8 8 8 9 9 10 10 9 7 6 5 4 5 6 7 8 8 8 7 7 5 4 4 5 7 10 13 13 13 13 12 11 11 11 9 9 9 8 8 8 7 5 5 5 6 6 6 6 6 6 6 7
10 10 11 18 16 7 5 4 2 3 4 3 2 3 4 6 8 10 11 11 13 12 12 13 13 13 12 11 8 6 7 8 9 8 7 7 8 9 10 10 9 8 7 5 4 4 6 7 9 9 8 8 6 5 5 5 6 8 10 12 14 14 12 10 10 9 7 6 7 7 6 6 6 7 7 6 4 4 5 5 6 7 7 7 7 6 6 6
11 8 5 8 6 3 4 2 3 3 3 3 3 5 7 9 10 12 13 13 14 12 12 12 12 12 9 8 7 7 9 8 7 8 9 9 8 9 8 7 6 4 4 4 6 8 9 9 9 6 5 6 4 5 7 9 13 15 14 13 10 8 6 5 5 5 6 6 5 4 3 5 7 6 6 5 6 6 6 6 5 5 5 5 5 6 6 6
8 4 3 3 3 3 3 2 4 3 3 5 6 9 9 11 13 13 13 12 12 11 12 11 10 10 8 8 8 7 8 7 8 9 9 9 8 7 6 5 4 5 7 8 9 9 7 7 6 4 6 6 6 10 14 15 16 13 9 6 4 4 4 4 5 5 5 5 4 5 6 9 9 8 8 10 11 10 10 10 9 9 8 9 9 8 8 7
4 3 3 3 2 3 3 3 4 4 6 8 9 11 12 14 14 13 11 11 11 11 10 10 9 8 7 8 6 6 8 8 8 8 7 7 6 5 5 6 7 9 9 8 7 6 5 5 4 6 9 11 14 17 15 12 7 5 4 4 5 5 3 3 4 5 5 7 9 8 11 15 10 8 11 11 12 11 10 11 10 10 10 9 9 7 7 7
2 3 2 2 3 4 4 4 6 7 9 10 11 14 15 14 12 10 10 10 11 10 9 8 7 7 6 7 7 8 8 7 6 5 5 5 6 6 8 9 8 7 6 4 5 4 4 6 9 15 16 14 16 13 7 4 3 2 3 5 6 4 2 3 5 8 9 9 10 7 9 11 5 5 8 6 6 5 4 6 5 6 6 4 3 1 2 3
3 3 2 3 4 5 6 7 8 9 11 14 15 15 13 10 10 10 10 10 9 8 8 7 7 7 8 8 8 7 6 5 5 4 5 7 8 8 9 7 4 3 4 4 5 8 12 16 20 19 14 9 8 5 2 3 4 3 3 5 4 2 3 6 9 10 8 6 6 5 3 3 2 3 4 3 4 3 3 6 5 6 5 3 3 2 3 3
3 3 4 4 5 7 8 9 11 13 16 17 14 11 9 9 10 10 9 9 8 7 7 7 8 8 9 8 5 5 5 3 4 6 8 9 8 7 6 4 3 3 5 8 14 18 19 18 15 10 7 6 4 3 3 2 3 4 5 5 2 3 6 8 8 6 3 3 4 4 0 0 4 4 3 5 5 4 4 6 6 7 6 4 3 3 4 5
4 5 5 6 7 8 10 13 16 18 16 13 10 9 9 10 9 8 8 7 7 7 7 7 8 6 5 6 4 4 5 5 5 7 8 6 4 4 4 4 7 11 15 19 19 15 11 8 5 3 5 4 2 3 3 3 5 5 4 3 2 4 6 6 4 2 0 1 3 4 1 2 5 5 5 7 6 5 7 8 8 6 5 5 4 5 6 6
6 7 7 8 10 13 17 19 18 15 11 9 9 9 9 8 8 7 6 6 7 7 7 6 5 4 4 6 8 7 6 7 5 5 5 4 4 5 8 12 18 21 20 17 11 5 3 3 1 3 4 2 4 5 3 5 5 3 3 3 3 3 4 4 2 0 0 0 2 4 4 3 5 6 7 7 6 7 8 8 7 5 4 6 6 7 7 8
8 9 10 13 17 20 20 16 12 10 9 8 9 8 7 7 6 6 7 7 6 6 5 4 4 8 9 8 10 9 7 7 4 3 3 5 10 15 18 21 19 14 9 6 3 2 2 1 2 4 2 3 7 5 3 5 3 1 3 4 4 4 3 2 1 0 2 2 0 2 4 4 5 8 7 6 6 7 7 6 4 5 6 7 8 9 9 10
11 14 18 21 21 18 14 10 9 8 8 8 7 6 6 7 7 7 7 5 4 5 5 5 6 9 9 8 9 7 5 5 4 7 11 16 21 19 17 13 7 4 3 2 1 1 3 4 3 2 2 5 7 3 3 4 3 4 4 4 4 4 5 4 2 1 3 3 1 3 4 4 6 7 5 5 6 7 5 4 5 7 8 9 9 9 9 9
21 23 23 19 14 11 9 8 8 7 8 7 6 6 6 7 6 5 3 2 4 5 7 9 9 6 4 4 6 5 6 11 15 19 20 18 15 9 6 4 3 3 1 1 3 4 5 4 2 4 6 5 4 3 4 5 5 6 6 7 6 4 5 4 2 2 3 3 4 5 5 6 8 5 4 7 7 5 3 4 7 8 9 8 7 7 8 10
24 19 14 11 9 8 7 8 7 7 7 6 7 7 6 6 4 3 5 5 6 7 8 9 8 4 3 7 12 15 17 19 17 14 11 7 4 4 3 3 4 4 2 3 6 5 4 4 4 7 6 3 4 5 6 6 6 6 7 7 7 5 4 3 3 5 4 3 4 4 4 5 5 3 5 7 4 2 4 7 9 9 8 6 6 8 10 11
13 10 8 8 8 7 7 7 6 6 6 7 6 4 4 4 3 7 10 9 9 8 4 4 7 10 14 18 20 18 14 10 6 5 6 4 3 4 3 3 4 4 5 4 3 4 4 6 6 5 4 4 6 7 6 7 6 6 7 6 7 7 4 2 2 3 3 4 5 6 6 5 3 3 6 5 1 3 6 10 11 9 7 6 7 9 11 11
8 8 8 7 7 6 7 6 6 6 5 4 4 3 5 7 7 10 11 7 5 4 4 10 16 17 17 14 11 9 5 3 3 5 7 5 3 4 1 2 5 3 4 5 3 5 5 6 6 5 6 7 8 8 8 7 7 7 6 7 8 6 4 2 0 2 6 8 7 7 7 5 2 3 7 6 4 5 8 11 11 8 6 6 8 9 10 11
8 7 7 6 6 6 6 5 4 3 3 3 5 6 8 11 10 8 6 5 8 12 15 17 15 10 8 6 5 6 5 4 4 2 6 5 2 5 3 1 4 2 2 4 3 5 5 5 7 6 8 9 9 9 7 8 8 7 7 8 7 6 8 9 7 7 7 7 6 5 5 5 4 7 9 7 6 7 9 10 8 6 6 7 8 8 8 9
6 6 6 5 5 5 4 3 3 2 3 6 8 10 11 9 6 5 8 12 17 19 15 10 6 4 4 6 6 4 2 5 5 -1 3 6 -0 3 4 1 3 2 2 4 4 5 7 7 8 8 9 9 9 8 8 10 8 7 8 7 7 8 9 9 10 8 6 6 5 6 8 6 7 10 8 6 7 8 9 8 7 6 8 8 8 8 9 12
6 5 4 4 3 3 3 3 4 6 8 10 10 10 9 8 7 10 16 15 11 11 9 7 6 2 1 4 5 5 1 2 5 1 -1 4 3 1 2 2 3 2 4 6 7 9 10 9 9 10 10 10 10 9 10 9 7 8 8 7 9 9 7 7 9 9 7 7 6 7 9 6 7 9 7 8 7 7 8 7 6 7 8 9 7 8 11 13
4 4 4 4 4 5 6 7 9 11 12 10 6 4 7 13 14 13 13 8 4 4 5 6 6 3 2 1 1 4 2 -2 3 4 -1 1 5 3 2 5 5 5 8 10 12 12 11 10 10 10 10 10 10 9 9 8 7 7 7 7 8 6 7 8 7 6 7 7 5 6 7 6 9 10 7 8 6 5 7 5 5 9 9 9 9 10 11 12
4 4 4 5 8 9 9 10 11 10 7 5 7 10 13 16 12 8 7 5 4 4 2 2 3 4 2 -0 1 3 2 1 3 6 3 -0 4 6 5 8 9 10 12 12 13 12 10 10 10 10 10 10 9 8 7 6 6 5 6 6 6 6 7 6 5 6 7 8 8 10 9 5 8 9 4 4 5 4 6 7 10 12 11 10 10 9 10 12
5 6 8 10 10 8 8 8 5 3 6 12 17 18 14 10 7 5 6 4 3 3 1 -1 1 4 2 2 6 5 2 4 4 5 6 4 5 9 9 11 12 13 13 12 12 11 10 10 10 10 10 9 7 6 6 5 4 4 4 4 5 5 5 5 7 7 5 7 9 11 8 3 6 7 1 3 7 7 9 12 11 9 8 8 6 7 11 13
9 10 10 8 6 5 5 3 4 10 17 20 17 10 6 5 5 5 4 2 1 2 2 1 1 3 4 4 7 6 4 5 4 5 9 10 11 12 14 15 13 13 12 11 11 10 10 10 10 10 9 6 6 6 6 4 2 4 4 4 4 4 2 4 7 5 4 8 8 6 6 5 5 3 5 10 11 10 11 9 5 5 7 7 7 9 11 12
10 9 6 4 4 3 4 8 16 21 16 10 6 5 5 5 3 2 2 1 -0 1 3 2 1 2 3 6 7 6 7 7 8 11 14 15 15 15 16 14 11 12 12 11 11 10 10 10 10 9 7 6 6 4 2 1 2 5 5 4 4 2 2 6 7 5 5 7 7 5 5 8 6 4 10 10 6 5 5 1 3 7 9 9 8 9 11 12
6 4 3 3 3 6 13 20 21 14 5 3 4 4 3 3 1 1 4 3 -0 0 1 1 2 2 3 6 7 9 11 12 14 16 16 16 16 15 14 12 10 10 10 11 10 8 9 9 8 7 5 6 5 2 2 1 1 5 6 5 4 2 4 7 5 3 3 5 8 4 5 11 7 4 7 4 -0 1 -0 0 6 10 11 9 8 10 13 14
4 3 3 4 9 17 21 17 10 4 3 4 3 2 -0 1 1 -1 4 5 -0 0 2 3 4 4 7 10 12 14 15 16 18 18 17 16 14 12 12 11 11 10 9 9 7 6 8 8 7 6 5 5 5 4 6 4 3 6 5 4 5 5 6 6 4 4 4 6 9 4 5 10 2 -3 3 3 1 1 -1 3 9 13 12 8 10 13 13 13
3 4 8 13 18 19 12 6 4 4 4 2 -0 1 -0 1 2 1 3 3 -0 1 2 5 8 10 14 16 16 17 16 15 17 16 15 12 11 11 10 10 10 8 8 7 6 7 8 9 8 6 5 6 5 5 5 5 5 5 4 5 8 8 6 7 8 6 2 4 8 5 6 11 6 6 10 7 3 2 3 9 13 13 10 8 11 13 11 12
8 12 17 19 15 9 5 4 5 2 1 0 -0 0 -1 1 2 1 2 3 1 1 3 10 15 15 16 14 12 13 13 11 11 10 10 10 9 9 7 7 8 6 7 8 8 9 8 8 7 4 6 7 5 5 5 4 5 5 5 6 7 6 4 7 9 4 -1 1 6 7 11 14 11 10 9 4 2 4 7 12 13 10 8 10 12 13 14 14
17 19 17 11 6 5 5 5 3 1 0 0 1 1 0 1 1 0 3 3 0 4 11 17 16 14 14 14 14 13 11 12 11 8 10 10 8 8 8 9 10 10 10 9 9 8 6 6 6 4 6 6 5 5 5 6 7 5 5 5 5 6 5 4 4 2 3 2 4 7 8 8 4 3 5 6 5 7 10 11 10 9 11 13 13 13 14 13
18 14 8 5 5 6 6 3 1 -0 -1 -1 -0 -0 -0 -0 0 1 2 1 4 12 17 16 13 14 14 14 18 19 14 14 15 11 11 12 10 10 10 9 9 10 8 6 6 5 4 6 5 5 6 5 5 6 5 6 6 4 4 5 6 7 4 2 2 5 7 3 2 6 5 7 9 8 10 10 5 6 9 9 9 10 12 13 12 12 13 12
11 8 5 5 6 5 4 1 -1 -1 -1 -0 -1 -2 0 1 1 1 0 5 12 17 15 11 11 14 12 10 12 16 14 13 13 11 10 10 8 5 4 3 3 4 3 3 4 3 5 7 6 5 7 6 6 6 5 5 4 5 6 5 5 6 4 6 7 8 8 4 1 3 8 14 15 12 9 4 1 5 9 9 9 9 11 11 11 13 13 10
6 5 5 5 6 4 3 0 -0 -0 -1 -0 0 -1 -1 1 2 1 3 12 18 15 11 7 5 5 4 5 5 6 8 7 6 6 4 4 4 2 2 1 1 2 3 4 5 5 8 9 7 7 7 5 6 6 4 5 6 6 6 3 5 6 5 8 9 6 5 5 2 2 9 15 10 5 3 -1 2 9 10 9 8 9 12 11 9 12 12 10
5 4 4 5 5 4 3 1 -1 -0 1 1 1 0 1 1 2 4 11 18 16 11 8 4 2 2 1 3 3 2 4 3 2 4 3 2 2 2 3 3 3 5 5 6 7 8 9 8 8 9 6 5 7 7 5 7 6 5 6 6 5 5 5 6 6 6 6 7 5 2 6 12 7 -0 0 2 7 11 9 7 8 10 12 10 9 11 11 10
5 4 4 5 5 3 2 1 0 1 2 2 1 2 4 3 5 11 18 17 10 7 4 -0 2 5 2 4 5 3 4 4 3 4 4 4 5 4 5 6 6 7 7 7 7 8 7 7 8 8 7 6 7 6 6 7 4 5 7 7 6 6 6 6 5 7 9 8 7 1 1 12 11 3 3 6 7 9 7 7 7 9 11 9 9 12 10 10
6 4 4 4 3 3 2 1 2 2 0 1 3 4 5 8 12 15 16 11 6 5 2 -1 4 6 4 7 7 5 6 5 5 6 6 6 7 5 6 7 7 7 7 6 6 7 7 6 7 7 8 8 7 6 7 6 5 8 8 6 6 5 6 8 7 7 8 6 5 1 1 12 14 8 7 7 5 8 9 6 6 10 12 8 9 11 9 10
7 5 5 5 3 3 2 1 2 4 3 3 5 6 9 15 16 12 12 10 5 4 1 -0 4 6 4 7 7 6 7 7 6 7 7 6 6 6 6 7 6 6 7 7 6 7 6 6 7 8 8 8 8 6 7 8 6 8 8 7 7 6 8 11 7 5 8 6 3 3 3 8 7 1 3 4 5 9 9 6 6 10 12 8 8 11 8 12
6 5 5 5 3 3 4 3 2 3 5 6 9 12 14 14 12 9 11 9 5 5 4 1 4 5 3 5 7 6 7 8 7 7 8 7 6 6 7 7 6 6 7 8 8 7 7 6 5 7 9 9 10 8 7 8 6 5 6 7 8 8 8 8 4 4 7 5 6 9 7 6 4 -0 1 3 5 9 9 7 8 11 11 8 8 10 10 14
6 5 5 5 4 4 3 3 3 3 7 12 14 15 12 8 9 10 10 8 5 6 5 3 5 6 4 5 7 5 5 7 7 7 8 7 6 7 8 8 7 7 8 9 9 8 8 7 4 5 6 6 6 5 3 5 7 4 5 7 8 8 7 7 5 7 7 4 8 10 5 5 7 5 3 3 6 10 8 6 10 12 10 9 10 11 12 15
4 3 2 3 4 4 1 2 7 10 13 16 14 11 9 8 9 9 8 8 7 7 7 6 6 8 7 7 8 7 7 8 8 7 8 8 8 8 9 9 8 8 9 9 8 9 10 9 8 6 4 4 4 4 2 5 7 5 5 8 8 6 7 8 7 7 6 4 7 8 7 9 10 7 5 4 7 10 7 6 10 11 8 9 11 11 13 18
3 2 2 1 2 4 4 7 13 16 15 14 10 8 9 9 8 7 7 9 8 7 8 7 8 10 9 9 12 11 10 10 10 10 10 10 10 10 10 10 9 9 10 9 8 10 9 10 12 10 8 7 7 7 7 6 6 6 7 8 8 6 7 8 6 5 5 4 7 8 7 8 8 7 7 7 8 10 7 5 10 11 9 10 11 12 16 19
2 1 3 5 5 8 10 11 14 15 12 9 7 8 9 8 8 8 8 9 8 7 8 8 8 9 8 9 12 11 11 12 11 12 13 12 10 11 11 10 10 11 10 9 9 10 9 8 10 12 10 8 8 8 9 7 6 8 8 7 7 8 8 8 5 5 6 6 8 8 6 6 7 7 7 6 7 8 7 7 11 11 9 10 12 14 18 19
7 6 8 10 10 11 12 13 14 11 8 7 7 8 8 7 8 9 9 9 8 8 8 8 8 9 8 9 9 8 9 10 11 10 12 12 10 10 11 10 11 11 10 9 10 10 9 8 10 13 12 9 8 8 9 8 8 8 8 7 7 7 8 8 7 7 8 9 10 11 10 8 7 7 5 5 8 8 8 10 13 10 9 10 12 14 17 19
12 13 14 12 10 13 14 12 11 8 6 6 7 7 7 7 8 8 8 8 8 9 9 9 10 10 10 9 8 7 7 8 10 10 10 11 10 10 11 10 10 10 10 10 10 9 8 8 8 10 11 11 11 10 9 9 9 9 8 8 7 7 8 7 7 8 8 9 10 8 7 6 5 5 5 6 9 9 7 10 11 9 9 10 10 15 20 22
12 14 14 11 9 12 12 8 7 6 6 6 5 6 6 6 6 6 7 7 7 9 9 9 10 10 9 9 9 8 7 7 9 9 8 10 10 9 10 10 9 10 10 10 10 9 8 8 8 8 10 9 9 9 8 8 9 9 8 8 8 7 6 6 10 11 7 8 8 5 5 8 7 5 4 6 9 7 6 10 11 9 11 12 14 20 23 22
12 13 13 11 9 9 7 5 5 6 8 6 4 6 6 5 6 5 5 6 7 8 8 7 8 8 8 8 8 7 7 7 8 8 8 10 9 9 10 10 9 9 10 10 10 9 8 7 7 8 11 10 6 7 8 8 10 10 9 9 7 6 6 7 11 13 9 7 8 8 9 9 5 3 3 6 7 6 7 13 13 10 13 16 18 21 21 20
11 12 10 8 8 8 6 6 5 5 6 6 4 5 5 5 6 5 4 6 6 7 7 6 6 7 7 7 8 8 7 7 8 8 9 9 9 9 9 9 9 9 9 9 9 9 9 8 6 5 8 11 10 10 9 7 8 9 9 8 6 6 6 7 10 11 7 5 8 9 7 3 2 3 4 6 7 7 11 16 12 8 11 16 19 21 19 20
Height
5785 5786 5788 5789 5790 5791 5792 5793 5793 5794 5794 5794 5794 5795 5795 5795 5796 5796 5796 5796 5795 5795 5795 5794 5793 5792 5792 5791 5790 5789 5788 5787 5786 5785 5784 5783 5782 5781 5781 5780 5779 5778 5777 5776 5775 5774 5773 5773 5772 5771 5770 5770 5769 5768 5767 5766 5765 5764 5763 5762 5761 5759 5758 5757 5755 5754 5752 5751 5749 5749 5748 5747 5746 5744 5742 5740 5738 5736 5734 5732 5731 5729 5728 5726 5724 5722 5721 5719
5784 5786 5788 5789 5790 5791 5791 5792 5793 5793 5794 5794 5794 5794 5795 5795 5795 5795 5795 5795 5794 5794 5793 5793 5792 5791 5790 5789 5788 5788 5787 5786 5785 5784 5783 5782 5781 5781 5780 5779 5778 5777 5776 5775 5774 5774 5773 5772 5771 5770 5769 5769 5768 5767 5766 5765 5764 5763 5762 5760 5759 5758 5756 5755 5754 5752 5751 5749 5748 5747 5746 5745 5743 5742 5740 5737 5736 5735 5732 5730 5728 5726 5724 5722 5720 5718 5716 5715
5784 5785 5787 5789 5789 5790 5791 5792 5793 5793 5793 5794 5794 5794 5794 5794 5794 5794 5794 5794 5793 5793 5792 5791 5791 5790 5789 5788 5787 5786 5785 5785 5784 5783 5782 5781 5781 5780 5779 5778 5777 5776 5776 5775 5774 5773 5772 5771 5771 5770 5769 5768 5767 5766 5765 5764 5763 5762 5760 5759 5758 5756 5755 5753 5751 5750 5749 5747 5746 5745 5744 5742 5740 5739 5737 5735 5733 5732 5730 5727 5725 5723 5721 5718 5716 5714 5712 5710
5783 5785 5787 5788 5789 5790 5791 5792 5792 5793 5793 5793 5793 5793 5793 5794 5793 5793 5793 5793 5792 5792 5791 5790 5789 5789 5788 5787 5786 5785 5785 5784 5783 5782 5782 5781 5780 5779 5778 5778 5777 5776 5775 5775 5774 5773 5772 5771 5770 5769 5768 5767 5766 5765 5764 5763 5762 5761 5759 5757 5756 5754 5753 5751 5749 5748 5746 5745 5743 5743 5741 5739 5737 5736 5734 5732 5730 5729 5727 5724 5722 5720 5718 5716 5713 5710 5708 5706
5783 5784 5786 5787 5788 5789 5790 5791 5792 5792 5793 5793 5793 5793 5793 5793 5793 5792 5792 5792 5791 5790 5790 5789 5788 5788 5787 5786 5785 5785 5784 5783 5783 5782 5781 5780 5780 5779 5778 5777 5776 5776 5775 5775 5774 5773 5772 5771 5770 5769 5768 5767 5766 5765 5763 5762 5761 5759 5758 5756 5754 5752 5750 5749 5747 5745 5744 5742 5741 5740 5738 5736 5734 5732 5731 5729 5727 5725 5723 5721 5718 5716 5715 5712 5710 5707 5704 5701
5782 5784 5785 5786 5788 5789 5790 5791 5792 5792 5792 5792 5792 5792 5792 5792 5792 5792 5791 5791 5790 5789 5789 5788 5787 5787 5786 5785 5785 5784 5784 5783 5783 5782 5781 5780 5780 5779 5778 5778 5777 5776 5775 5774 5774 5773 5772 5771 5770 5768 5767 5766 5765 5764 5762 5761 5759 5758 5756 5754 5752 5750 5748 5746 5744 5743 5741 5740 5738 5737 5735 5733 5731 5729 5727 5726 5724 5722 5720 5717 5715 5712 5710 5708 5706 5704 5701 5698
5781 5783 5785 5786 5787 5789 5790 5791 5791 5792 5792 5792 5792 5791 5791 5791 5791 5791 5790 5790 5789 5789 5788 5787 5787 5786 5786 5785 5785 5784 5784 5783 5782 5782 5781 5781 5780 5779 5779 5778 5777 5776 5775 5774 5773 5772 5771 5770 5769 5768 5766 5765 5764 5762 5761 5759 5758 5756 5754 5752 5750 5748 5746 5744 5742 5740 5739 5737 5736 5734 5732 5730 5728 5726 5724 5722 5720 5718 5715 5713 5711 5708 5706 5704 5701 5699 5697 5695
5781 5783 5785 5786 5787 5789 5790 5791 5791 5791 5791 5791 5791 5791 5791 5791 5790 5790 5790 5789 5789 5788 5787 5787 5786 5786 5786 5785 5785 5784 5784 5783 5783 5782 5781 5781 5780 5780 5779 5778 5777 5776 5775 5774 5773 5771 5770 5769 5768 5767 5765 5764 5762 5761 5759 5757 5756 5754 5752 5750 5748 5746 5744 5742 5740 5738 5737 5735 5733 5732 5729 5726 5724 5722 5720 5718 5716 5713 5710 5708 5706 5704 5702 5699 5697 5694 5692 5690
5781 5783 5784 5786 5787 5788 5789 5790 5790 5790 5790 5790 5790 5790 5790 5790 5790 5789 5789 5789 5788 5788 5787 5787 5786 5786 5786 5785 5785 5785 5784 5783 5783 5782 5782 5781 5780 5780 5779 5778 5777 5776 5775 5773 5772 5771 5770 5768 5767 5766 5764 5762 5761 5759 5758 5756 5754 5752 5750 5748 5746 5745 5743 5741 5738 5736 5734 5732 5730 5728 5726 5723 5721 5719 5716 5714 5712 5709 5706 5704 5701 5699 5697 5694 5692 5689 5687 5684
5782 5783 5785 5786 5787 5788 5789 5789 5789 5790 5790 5790 5790 5790 5790 5790 5789 5789 5789 5788 5788 5787 5787 5787 5787 5786 5786 5786 5785 5785 5784 5784 5783 5783 5782 5781 5781 5780 5779 5778 5777 5775 5774 5773 5772 5770 5769 5767 5766 5764 5763 5761 5759 5758 5756 5754 5752 5750 5749 5747 5745 5743 5741 5738 5736 5733 5732 5730 5727 5725 5723 5720 5717 5715 5713 5711 5708 5705 5702 5700 5697 5694 5692 5689 5687 5684 5682 5679
5782 5784 5785 5786 5787 5788 5788 5789 5789 5789 5789 5789 5789 5789 5789 5789 5789 5789 5789 5788 5788 5788 5788 5787 5787 5787 5786 5786 5785 5785 5784 5784 5784 5783 5782 5782 5781 5780 5779 5777 5776 5775 5774 5772 5771 5770 5768 5766 5765 5763 5761 5759 5758 5756 5754 5753 5751 5749 5747 5745 5743 5741 5738 5736 5734 5731 5729 5727 5725 5723 5721 5718 5714 5712 5710 5707 5704 5701 5699 5696 5693 5690 5687 5684 5682 5679 5677 5674
5782 5784 5785 5786 5786 5787 5788 5788 5788 5789 5789 5789 5789 5789 5789 5789 5789 5789 5789 5789 5789 5788 5788 5788 5788 5787 5787 5786 5786 5785 5785 5784 5784 5784 5783 5782 5781 5780 5778 5777 5776 5775 5773 5772 5770 5768 5767 5765 5763 5761 5760 5758 5756 5755 5753 5751 5750 5748 5745 5743 5741 5739 5736 5734 5731 5729 5727 5725 5722 5720 5718 5715 5712 5709 5706 5703 5700 5697 5695 5692 5689 5686 5683 5680 5677 5674 5671 5668
5782 5783 5784 5785 5786 5787 5787 5788 5788 5788 5789 5789 5789 5789 5789 5789 5790 5790 5790 5790 5789 5789 5789 5788 5788 5788 5787 5787 5786 5786 5786 5785 5785 5784 5783 5782 5780 5779 5778 5777 5776 5774 5773 5771 5769 5767 5765 5763 5762 5760 5759 5757 5755 5754 5752 5750 5748 5746 5743 5741 5739 5737 5734 5732 5729 5726 5724 5721 5719 5716 5714 5712 5709 5705 5703 5700 5697 5693 5690 5687 5684 5681 5678 5675 5672 5669 5666 5663
5782 5783 5784 5785 5786 5786 5787 5787 5788 5788 5789 5789 5789 5790 5790 5790 5790 5790 5790 5790 5790 5790 5789 5789 5789 5788 5788 5787 5787 5787 5786 5786 5785 5784 5783 5782 5780 5779 5778 5777 5775 5773 5772 5770 5768 5766 5764 5763 5761 5760 5758 5756 5754 5753 5750 5749 5747 5744 5742 5740 5738 5735 5732 5730 5727 5724 5722 5719 5716 5712 5709 5708 5705 5702 5699 5696 5692 5689 5686 5682 5679 5676 5673 5670 5666 5663 5660 5657
5782 5783 5784 5785 5785 5786 5787 5787 5788 5788 5789 5789 5790 5790 5791 5791 5791 5791 5791 5791 5791 5791 5790 5790 5789 5789 5788 5788 5787 5787 5786 5786 5785 5784 5783 5781 5780 5779 5777 5776 5774 5772 5770 5769 5767 5766 5764 5762 5761 5759 5757 5756 5753 5751 5749 5747 5745 5743 5741 5739 5737 5734 5731 5728 5725 5723 5720 5717 5714 5710 5706 5704 5702 5698 5694 5691 5688 5684 5681 5677 5674 5670 5667 5664 5661 5657 5654 5651
5782 5783 5784 5785 5785 5786 5787 5788 5788 5789 5790 5790 5791 5791 5792 5792 5792 5792 5792 5792 5792 5791 5791 5791 5790 5790 5789 5788 5788 5787 5787 5786 5785 5784 5782 5781 5779 5778 5776 5774 5773 5771 5769 5768 5767 5765 5764 5762 5760 5758 5756 5755 5752 5750 5748 5746 5744 5742 5740 5737 5734 5732 5729 5726 5723 5720 5717 5715 5713 5709 5704 5700 5697 5694 5690 5686 5683 5679 5675 5672 5668 5665 5662 5658 5655 5651 5648 5644
5782 5783 5784 5785 5786 5787 5787 5788 5789 5790 5791 5791 5792 5792 5793 5793 5793 5793 5793 5793 5793 5792 5792 5792 5791 5790 5790 5789 5789 5788 5787 5786 5784 5783 5782 5780 5779 5777 5775 5773 5772 5771 5769 5768 5766 5764 5763 5761 5759 5757 5755 5753 5750 5748 5747 5745 5744 5741 5738 5735 5732 5729 5726 5723 5719 5716 5714 5711 5710 5707 5702 5697 5693 5689 5685 5682 5678 5674 5670 5667 5663 5660 5656 5653 5649 5645 5641 5638
5782 5783 5784 5785 5786 5787 5788 5789 5790 5791 5792 5792 5793 5793 5794 5794 5794 5794 5794 5794 5794 5793 5793 5792 5792 5791 5791 5790 5789 5788 5787 5785 5784 5782 5781 5779 5778 5776 5775 5773 5772 5770 5769 5768 5766 5764 5762 5760 5758 5756 5754 5751 5749 5748 5746 5744 5741 5738 5736 5733 5730 5726 5723 5720 5717 5713 5710 5706 5704 5702 5699 5695 5690 5686 5681 5677 5673 5669 5666 5662 5658 5654 5650 5647 5643 5639 5635 5631
5783 5784 5785 5787 5788 5789 5790 5791 5792 5792 5793 5794 5794 5795 5795 5795 5795 5795 5795 5795 5795 5794 5794 5793 5792 5791 5791 5790 5788 5787 5786 5785 5783 5782 5780 5779 5778 5776 5775 5773 5772 5770 5769 5767 5765 5763 5761 5759 5757 5754 5752 5750 5749 5747 5744 5741 5738 5735 5733 5730 5727 5724 5721 5717 5714 5710 5706 5702 5699 5697 5694 5690 5686 5682 5677 5673 5669 5664 5661 5657 5652 5648 5644 5641 5637 5632 5628 5624
5784 5786 5787 5788 5789 5790 5791 5792 5793 5794 5795 5795 5796 5796 5796 5796 5796 5796 5796 5796 5795 5795 5794 5793 5793 5792 5791 5789 5788 5787 5786 5784 5783 5782 5780 5779 5777 5776 5774 5773 5771 5770 5768 5766 5764 5762 5760 5758 5755 5753 5751 5749 5747 5744 5741 5739 5736 5733 5730 5727 5724 5722 5719 5714 5710 5707 5703 5699 5695 5692 5691 5687 5682 5677 5673 5668 5664 5660 5656 5652 5648 5643 5639 5634 5630 5626 5621 5617
5786 5787 5789 5790 5791 5792 5793 5794 5795 5796 5796 5797 5797 5797 5798 5798 5798 5797 5797 5797 5796 5796 5795 5794 5793 5792 5791 5789 5788 5787 5786 5784 5783 5782 5780 5779 5777 5775 5774 5772 5770 5769 5767 5764 5762 5761 5758 5756 5754 5752 5750 5747 5744 5741 5739 5736 5733 5730 5727 5725 5722 5719 5716 5712 5708 5703 5699 5695 5691 5687 5686 5683 5678 5673 5669 5664 5659 5656 5652 5647 5643 5638 5633 5629 5624 5619 5614 5609
5788 5790 5791 5792 5793 5794 5795 5796 5797 5797 5798 5798 5799 5799 5799 5799 5799 5798 5798 5797 5797 5796 5795 5794 5793 5792 5791 5789 5788 5787 5786 5785 5784 5782 5780 5778 5776 5775 5773 5771 5769 5767 5765 5763 5761 5759 5757 5754 5752 5750 5747 5744 5742 5739 5736 5733 5731 5728 5725 5722 5719 5715 5713 5710 5705 5699 5695 5691 5687 5682 5679 5677 5673 5668 5664 5660 5655 5651 5647 5642 5637 5631 5626 5622 5617 5612 5607 5601
5791 5792 5793 5794 5795 5796 5797 5798 5798 5799 5799 5800 5800 5800 5800 5800 5800 5799 5799 5798 5797 5797 5796 5795 5794 5793 5791 5790 5789 5787 5786 5785 5783 5781 5780 5778 5776 5774 5772 5770 5768 5767 5765 5762 5760 5757 5755 5753 5750 5747 5745 5742 5739 5737 5734 5731 5728 5725 5722 5719 5716 5712 5708 5705 5701 5696 5690 5686 5682 5678 5674 5671 5668 5664 5659 5654 5650 5645 5640 5634 5629 5624 5619 5614 5608 5602 5597 5591
5793 5794 5796 5797 5797 5798 5799 5799 5800 5800 5801 5801 5801 5801 5801 5801 5801 5800 5799 5798 5798 5797 5796 5795 5794 5793 5792 5790 5789 5788 5786 5785 5783 5781 5779 5777 5775 5774 5772 5770 5768 5766 5763 5761 5758 5756 5753 5750 5748 5745 5742 5740 5737 5734 5731 5728 5725 5722 5719 5715 5712 5708 5703 5699 5696 5693 5687 5682 5677 5673 5669 5666 5662 5658 5654 5648 5643 5637 5632 5627 5622 5617 5611 5605 5599 5593 5587 5582
5796 5797 5798 5798 5799 5800 5800 5801 5801 5802 5802 5802 5802 5802 5802 5802 5801 5801 5800 5799 5798 5798 5797 5796 5795 5793 5792 5791 5789 5788 5786 5785 5783 5781 5779 5777 5775 5773 5771 5769 5766 5764 5762 5759 5756 5754 5751 5748 5745 5743 5740 5737 5734 5731 5729 5726 5723 5719 5716 5712 5708 5705 5701 5696 5692 5688 5684 5679 5674 5669 5663 5660 5656 5650 5646 5641 5635 5631 5625 5619 5614 5607 5602 5596 5590 5585 5579 5573
5798 5799 5800 5800 5801 5802 5802 5802 5803 5803 5803 5803 5803 5803 5803 5802 5802 5801 5800 5800 5799 5799 5798 5797 5796 5794 5793 5791 5790 5788 5787 5785 5783 5781 5779 5777 5775 5772 5770 5768 5765 5762 5760 5757 5754 5751 5749 5746 5743 5740 5737 5735 5732 5729 5726 5723 5720 5716 5712 5709 5705 5701 5698 5694 5689 5685 5681 5676 5671 5666 5658 5653 5648 5641 5638 5634 5628 5624 5618 5611 5605 5600 5594 5589 5582 5576 5570 5564
5800 5801 5802 5802 5803 5803 5803 5804 5804 5804 5805 5805 5804 5804 5803 5803 5802 5802 5801 5801 5800 5799 5799 5798 5796 5795 5793 5792 5790 5788 5787 5785 5783 5781 5779 5776 5774 5771 5769 5766 5763 5760 5757 5755 5752 5749 5746 5743 5741 5738 5735 5732 5729 5726 5724 5720 5717 5713 5710 5706 5702 5698 5694 5691 5687 5682 5678 5672 5665 5660 5653 5648 5644 5635 5630 5627 5620 5615 5610 5603 5598 5593 5587 5581 5573 5565 5558 5551
5802 5803 5803 5804 5804 5805 5805 5805 5806 5806 5806 5805 5805 5805 5804 5804 5804 5803 5803 5802 5801 5800 5800 5799 5797 5796 5794 5792 5791 5789 5787 5784 5782 5779 5777 5774 5772 5769 5766 5763 5761 5758 5755 5752 5749 5747 5744 5741 5738 5735 5733 5730 5727 5724 5720 5717 5714 5710 5707 5702 5698 5695 5692 5688 5684 5679 5675 5669 5660 5653 5646 5641 5640 5634 5625 5620 5614 5607 5603 5597 5591 5585 5579 5572 5564 5555 5548 5541
5804 5804 5805 5805 5806 5806 5807 5807 5807 5807 5806 5806 5806 5806 5805 5805 5805 5805 5804 5803 5802 5801 5800 5799 5798 5796 5795 5793 5791 5789 5786 5783 5780 5778 5775 5772 5769 5766 5764 5761 5759 5756 5753 5750 5748 5745 5742 5739 5736 5733 5730 5727 5724 5720 5717 5713 5710 5707 5703 5700 5696 5692 5689 5684 5680 5675 5669 5664 5656 5649 5642 5635 5633 5631 5621 5612 5607 5601 5595 5590 5584 5577 5570 5563 5555 5547 5539 5532
5805 5806 5807 5807 5807 5808 5808 5808 5808 5808 5808 5808 5807 5807 5807 5807 5807 5806 5805 5804 5804 5803 5801 5800 5798 5796 5795 5792 5790 5787 5784 5781 5778 5775 5773 5770 5767 5764 5762 5759 5757 5754 5751 5749 5746 5743 5740 5737 5734 5731 5728 5724 5721 5718 5714 5711 5707 5704 5700 5697 5693 5688 5684 5679 5675 5670 5664 5660 5654 5647 5639 5631 5625 5622 5616 5607 5600 5595 5590 5584 5578 5571 5562 5554 5546 5538 5530 5522
5807 5808 5808 5808 5809 5809 5809 5809 5809 5809 5809 5809 5809 5809 5809 5809 5808 5807 5806 5805 5805 5803 5802 5800 5798 5796 5793 5790 5788 5785 5782 5779 5776 5773 5770 5767 5764 5762 5759 5756 5754 5752 5750 5747 5744 5741 5738 5735 5732 5729 5726 5722 5719 5715 5712 5708 5704 5700 5695 5691 5687 5683 5679 5674 5670 5666 5660 5655 5651 5643 5635 5627 5620 5613 5608 5603 5596 5590 5584 5577 5569 5561 5552 5544 5536 5527 5518 5509
5809 5809 5810 5810 5810 5810 5810 5810 5811 5811 5811 5811 5811 5811 5810 5810 5809 5808 5807 5806 5805 5804 5802 5800 5797 5794 5792 5789 5786 5783 5780 5777 5774 5771 5769 5766 5763 5760 5758 5755 5753 5750 5748 5745 5742 5739 5736 5734 5731 5727 5723 5720 5716 5712 5707 5703 5698 5694 5689 5685 5680 5676 5673 5669 5664 5660 5657 5651 5646 5640 5632 5626 5620 5611 5604 5599 5592 5584 5578 5569 5560 5551 5541 5532 5524 5515 5506 5498
5811 5811 5811 5811 5811 5812 5812 5812 5813 5813 5813 5813 5812 5812 5812 5811 5810 5809 5808 5807 5805 5803 5801 5799 5796 5793 5791 5788 5785 5782 5779 5776 5774 5771 5768 5766 5763 5760 5757 5755 5753 5750 5747 5744 5741 5738 5734 5732 5728 5724 5721 5717 5712 5708 5703 5698 5693 5689 5684 5678 5673 5668 5663 5659 5655 5651 5649 5646 5642 5636 5627 5622 5617 5607 5599 5593 5586 5579 5572 5563 5554 5545 5535 5525 5517 5508 5499 5491
5812 5812 5813 5813 5813 5814 5814 5814 5814 5814 5814 5814 5814 5813 5813 5812 5811 5810 5809 5807 5805 5803 5801 5798 5795 5792 5790 5787 5784 5781 5778 5775 5773 5770 5767 5765 5762 5760 5757 5755 5752 5749 5746 5743 5740 5737 5733 5729 5726 5722 5718 5714 5709 5705 5699 5694 5689 5685 5680 5675 5669 5664 5658 5653 5648 5642 5637 5634 5633 5628 5619 5613 5607 5598 5592 5586 5579 5573 5567 5558 5549 5541 5532 5523 5514 5505 5495 5486
5814 5814 5814 5815 5815 5815 5816 5816 5816 5816 5816 5816 5815 5814 5813 5812 5811 5810 5808 5807 5805 5802 5800 5797 5795 5792 5789 5786 5784 5781 5778 5775 5772 5770 5767 5765 5762 5760 5757 5755 5752 5749 5745 5742 5738 5735 5731 5728 5724 5720 5716 5711 5707 5702 5697 5691 5686 5681 5677 5672 5667 5662 5656 5651 5647 5639 5630 5624 5623 5619 5613 5609 5601 5591 5585 5578 5571 5565 5559 5552 5542 5532 5524 5515 5506 5497 5487 5477
5815 5816 5816 5817 5817 5817 5817 5817 5817 5817 5817 5817 5816 5815 5814 5813 5812 5810 5808 5806 5804 5802 5799 5797 5794 5792 5789 5786 5783 5780 5778 5775 5772 5770 5767 5765 5762 5759 5757 5754 5750 5747 5744 5740 5736 5733 5729 5725 5721 5716 5713 5708 5703 5699 5694 5689 5683 5677 5672 5668 5663 5658 5652 5647 5642 5637 5629 5620 5618 5614 5606 5603 5596 5584 5574 5566 5560 5556 5550 5542 5533 5522 5513 5504 5495 5486 5476 5466
5817 5818 5818 5818 5819 5819 5819 5819 5819 5819 5818 5818 5817 5815 5814 5813 5811 5810 5808 5806 5803 5801 5799 5796 5794 5791 5788 5785 5783 5780 5777 5775 5772 5769 5766 5764 5761 5758 5755 5752 5749 5745 5742 5738 5734 5730 5726 5722 5718 5714 5709 5705 5700 5695 5691 5687 5681 5675 5669 5663 5658 5654 5648 5641 5633 5629 5623 5614 5611 5608 5599 5594 5587 5575 5565 5557 5550 5546 5541 5534 5526 5516 5505 5495 5485 5476 5466 5456
5819 5820 5820 5820 5820 5821 5820 5820 5820 5820 5819 5818 5817 5816 5814 5813 5811 5809 5807 5805 5803 5801 5798 5795 5793 5790 5787 5785 5782 5780 5777 5774 5771 5768 5765 5762 5759 5757 5753 5750 5747 5743 5740 5736 5732 5728 5723 5719 5715 5711 5706 5702 5697 5692 5687 5683 5678 5673 5668 5661 5654 5648 5642 5637 5629 5621 5614 5605 5599 5598 5595 5589 5581 5569 5559 5551 5542 5536 5531 5525 5517 5508 5497 5485 5475 5465 5456 5446
5821 5822 5822 5822 5822 5822 5822 5822 5821 5821 5820 5819 5818 5816 5814 5813 5811 5809 5807 5805 5802 5800 5797 5795 5792 5790 5787 5785 5782 5779 5776 5773 5770 5767 5764 5761 5758 5755 5752 5748 5745 5741 5738 5734 5729 5725 5721 5716 5712 5708 5703 5698 5694 5689 5683 5678 5673 5668 5663 5658 5651 5645 5639 5635 5629 5620 5611 5600 5591 5587 5587 5586 5578 5565 5554 5544 5535 5527 5520 5514 5506 5497 5487 5476 5465 5455 5445 5436
5823 5823 5824 5824 5824 5824 5823 5823 5822 5821 5820 5819 5818 5816 5814 5812 5811 5809 5807 5804 5802 5799 5797 5794 5792 5789 5787 5784 5781 5778 5775 5772 5770 5766 5763 5760 5756 5753 5750 5746 5742 5739 5735 5731 5727 5723 5719 5714 5711 5707 5702 5696 5690 5685 5680 5675 5669 5664 5658 5653 5647 5642 5636 5631 5625 5616 5608 5599 5589 5580 5578 5580 5575 5562 5549 5538 5529 5522 5513 5505 5498 5488 5478 5468 5459 5449 5438 5428
5825 5825 5825 5825 5825 5825 5825 5824 5823 5822 5820 5819 5817 5816 5814 5812 5810 5808 5806 5804 5802 5799 5796 5793 5791 5789 5786 5783 5780 5777 5774 5771 5768 5765 5762 5758 5755 5751 5748 5744 5740 5736 5732 5729 5725 5721 5717 5712 5708 5704 5700 5695 5689 5683 5678 5674 5668 5662 5656 5649 5642 5636 5631 5626 5620 5613 5606 5597 5588 5576 5569 5570 5566 5553 5544 5534 5523 5516 5508 5498 5491 5482 5472 5461 5452 5443 5432 5422
5826 5826 5827 5827 5826 5826 5825 5824 5823 5822 5820 5819 5817 5816 5814 5812 5810 5808 5806 5804 5801 5799 5796 5793 5791 5788 5785 5782 5779 5776 5773 5770 5767 5763 5760 5757 5753 5749 5745 5742 5738 5734 5730 5726 5722 5718 5714 5710 5705 5701 5696 5692 5687 5682 5676 5671 5665 5659 5654 5647 5640 5633 5627 5621 5614 5607 5601 5594 5588 5577 5566 5565 5562 5548 5537 5529 5518 5510 5503 5494 5484 5475 5466 5455 5445 5437 5427 5417
5828 5828 5828 5828 5827 5826 5825 5824 5823 5822 5821 5819 5817 5815 5813 5811 5810 5808 5806 5804 5801 5799 5796 5793 5790 5787 5784 5782 5779 5776 5772 5769 5766 5762 5759 5755 5752 5748 5744 5740 5736 5732 5728 5724 5719 5715 5711 5707 5702 5698 5694 5689 5684 5678 5673 5667 5660 5654 5649 5643 5636 5629 5623 5618 5610 5602 5594 5586 5580 5571 5561 5561 5561 5549 5535 5525 5514 5506 5498 5489 5478 5468 5459 5450 5439 5429 5419 5409
5829 5829 5829 5828 5827 5827 5826 5825 5823 5822 5821 5819 5817 5815 5813 5811 5810 5808 5806 5803 5801 5798 5796 5793 5790 5787 5784 5781 5778 5775 5772 5768 5765 5762 5758 5754 5751 5747 5743 5739 5735 5731 5726 5721 5717 5712 5707 5703 5698 5693 5689 5685 5681 5675 5669 5664 5657 5648 5642 5637 5631 5624 5618 5613 5607 5598 5590 5581 5574 5564 5554 5552 5553 5546 5534 5521 5509 5500 5490 5480 5471 5459 5449 5440 5429 5419 5409 5399
5830 5830 5829 5829 5828 5827 5826 5825 5823 5822 5820 5819 5817 5815 5814 5812 5810 5808 5805 5803 5801 5798 5795 5793 5790 5787 5784 5781 5777 5774 5771 5767 5764 5761 5757 5753 5749 5745 5741 5737 5733 5728 5724 5719 5714 5709 5703 5698 5693 5687 5682 5676 5672 5666 5660 5656 5652 5645 5638 5632 5627 5620 5612 5607 5601 5592 5583 5576 5571 5561 5547 5543 5544 5538 5529 5517 5503 5490 5480 5470 5461 5451 5440 5431 5421 5411 5401 5391
5831 5830 5830 5829 5828 5827 5826 5825 5823 5822 5820 5819 5817 5815 5814 5812 5810 5808 5805 5803 5800 5798 5795 5792 5789 5786 5783 5780 5777 5773 5770 5766 5762 5759 5755 5751 5747 5743 5739 5735 5730 5725 5721 5716 5711 5706 5700 5695 5690 5685 5678 5672 5667 5662 5656 5651 5646 5641 5635 5628 5622 5615 5607 5601 5595 5587 5578 5569 5567 5560 5544 5533 5532 5527 5519 5509 5495 5482 5471 5460 5452 5443 5433 5424 5415 5404 5393 5383
5831 5831 5831 5830 5829 5827 5826 5825 5823 5822 5821 5819 5818 5816 5814 5812 5810 5807 5805 5802 5800 5797 5794 5792 5789 5785 5782 5779 5775 5772 5768 5765 5761 5757 5753 5749 5744 5741 5736 5732 5727 5723 5718 5713 5708 5703 5697 5692 5687 5683 5677 5671 5665 5659 5654 5649 5644 5639 5632 5625 5620 5613 5604 5597 5590 5583 5574 5564 5559 5556 5546 5532 5524 5518 5511 5501 5489 5478 5466 5454 5443 5433 5423 5414 5405 5395 5386 5376
5832 5832 5831 5830 5829 5828 5826 5825 5824 5823 5821 5820 5818 5816 5814 5812 5810 5807 5805 5802 5799 5797 5794 5791 5788 5784 5781 5778 5774 5770 5767 5763 5759 5755 5751 5746 5742 5738 5733 5729 5725 5720 5715 5710 5706 5700 5696 5690 5685 5681 5676 5669 5663 5657 5651 5646 5640 5635 5629 5622 5617 5610 5602 5595 5588 5578 5569 5559 5549 5544 5539 5529 5519 5512 5507 5498 5486 5473 5461 5447 5435 5423 5412 5404 5397 5389 5381 5371
5833 5832 5831 5830 5829 5828 5827 5826 5825 5823 5822 5820 5818 5816 5814 5812 5809 5807 5804 5802 5799 5796 5793 5790 5787 5783 5780 5776 5772 5769 5765 5761 5757 5752 5748 5744 5740 5735 5731 5726 5722 5717 5712 5707 5703 5698 5693 5688 5682 5678 5673 5668 5662 5655 5649 5644 5638 5631 5625 5619 5612 5605 5596 5590 5585 5574 5562 5554 5546 5537 5531 5526 5518 5509 5502 5493 5481 5468 5455 5442 5430 5419 5407 5398 5391 5383 5373 5364
5833 5833 5832 5831 5830 5829 5828 5827 5825 5824 5822 5820 5818 5816 5814 5812 5809 5807 5804 5801 5798 5795 5792 5789 5786 5782 5779 5775 5771 5767 5763 5759 5755 5750 5746 5742 5737 5733 5728 5723 5719 5714 5709 5704 5700 5695 5689 5684 5679 5673 5669 5665 5659 5652 5644 5638 5633 5627 5620 5614 5607 5600 5591 5583 5579 5570 5558 5549 5544 5535 5526 5520 5512 5503 5494 5485 5475 5463 5452 5440 5429 5419 5406 5393 5383 5373 5361 5351
5834 5833 5832 5831 5831 5830 5829 5827 5826 5824 5822 5820 5818 5816 5814 5811 5809 5806 5804 5801 5797 5794 5791 5788 5785 5781 5778 5774 5770 5766 5762 5758 5753 5749 5744 5740 5735 5730 5726 5721 5716 5711 5706 5701 5696 5691 5685 5680 5675 5670 5665 5660 5654 5647 5640 5633 5628 5623 5616 5609 5602 5596 5588 5578 5571 5563 5550 5540 5534 5527 5517 5507 5498 5490 5484 5480 5473 5463 5451 5438 5425 5413 5400 5384 5370 5359 5350 5341
5835 5834 5833 5832 5831 5830 5829 5828 5826 5824 5822 5820 5818 5816 5814 5811 5808 5806 5803 5800 5797 5793 5790 5787 5783 5780 5776 5773 5769 5765 5761 5756 5752 5747 5743 5738 5733 5728 5723 5719 5713 5708 5703 5698 5693 5688 5682 5676 5672 5666 5661 5656 5650 5643 5636 5629 5623 5617 5609 5603 5597 5590 5583 5575 5568 5560 5547 5535 5526 5517 5509 5501 5492 5485 5480 5475 5469 5459 5444 5428 5413 5400 5389 5378 5365 5354 5345 5337